ミュラー第3彗星

136P/Mueller 3 (1999)

English version
Home page
Updated on October 9, 2016

---------------------------------------------------------------------

・ プロフィール

符号 136P/1998 K4
検出日 1998年 5月24日
検出光度 20.6等
検出者 J. V. Scotti (Lunar and Planetary Laboratory)

・ 軌道要素

   The following improved orbital elements by Kenji Muraoka, are
  from 82 observations 1991 to 1999, perturbations by 9 Plantes,
  Moon and 5 minor planets were taken into account.
   The mean residual is +/- 0.80 arc seconds.

      Epoch  =  1999 Mar.  3.0  TT       JDT = 2451240.5
          T  =  1999 Mar. 20.34453       +/- 0.00604 (m.e.) TT
       Peri. =  225.41739                +/- 0.00129
       Node  =  137.96645                +/- 0.00017   (2000.0)
       Incl. =    9.41417                +/- 0.00003
          q  =    3.0106147              +/- 0.0000011 AU
          e  =    0.2886851              +/- 0.0000003
          a  =    4.2324642              +/- 0.0000005 AU
          n  =    0.11319158             +/- 0.00000002
          P  =    8.707                  +/- 0.0000016  years

・ 星図

・ 光度変化

        m1 = 0 + 5 logΔ + 33 log r(t - 130)

---------------------------------------------------------------------

軌道要素は村岡健治氏の計算によるものです。
星図は StellaNavigator Ver.2.0 for Windows (アストロアーツ 編著 / アスキー出版局刊) で作成したものです。
光度グラフはComet for Windowsで作成したものです。

---------------------------------------------------------------------

Copyright(C) Seiichi Yoshida (comet@aerith.net). All rights reserved.